| time (UTC) | temp F | wind direction | speed knots | gust knots | rain 1hr in | rain 24hr in | rain mn in | humidity % | barometer mb |
| 20260905113101 | 90 | 122 | 2.6 | 7.0 | 0.00 | 0.00 | 0.00 | 70 | 1020.6 |
| 20260905111644 | 89 | 122 | 5.2 | 8.7 | 0.00 | 0.00 | 0.00 | 70 | 1020.6 |
| 20260905110055 | 89 | 122 | 5.2 | 7.8 | 0.00 | 0.00 | 0.00 | 70 | 1020.5 |
| 20260905104559 | 87 | 122 | 4.3 | 7.8 | 0.00 | 0.00 | 0.00 | 70 | 1020.6 |
| 20260905103055 | 86 | 122 | 4.3 | 9.6 | 0.00 | 0.00 | 0.00 | 70 | 1020.5 |
| 20260905101600 | 86 | 122 | 4.3 | 7.0 | 0.00 | 0.00 | 0.00 | 70 | 1020.2 |
| 20260905100104 | 84 | 122 | 4.3 | 7.8 | 0.00 | 0.00 | 0.00 | 70 | 1019.9 |
| 20260905094556 | 86 | 122 | 0.9 | 3.5 | 0.00 | 0.00 | 0.00 | 70 | 1019.4 |
| 20260905093102 | 86 | 0 | 0.0 | 1.7 | 0.00 | 0.00 | 0.00 | 70 | 1019.3 |
| 20260905091551 | 84 | 122 | 0.0 | 7.8 | 0.00 | 0.00 | 0.00 | 70 | 1019.1 |
| 20260905090058 | 81 | 122 | 7.0 | 11.3 | 0.00 | 0.00 | 0.00 | 69 | 1018.8 |
| 20260905084604 | 79 | 160 | 5.2 | 8.7 | 0.00 | 0.00 | 0.00 | 69 | 1019.1 |
| 20260905083057 | 79 | 162 | 2.6 | 4.3 | 0.00 | 0.00 | 0.00 | 69 | 1019.9 |
| 20260905081553 | 78 | 162 | 0.9 | 4.3 | 0.00 | 0.00 | 0.00 | 69 | 1020.0 |
| 20260905080117 | 78 | 162 | 1.7 | 7.8 | 0.00 | 0.00 | 0.00 | 69 | 1020.5 |
| 20260905074557 | 78 | 162 | 3.5 | 7.8 | 0.00 | 0.00 | 0.00 | 69 | 1020.5 |
| 20260905073101 | 78 | 162 | 5.2 | 12.2 | 0.00 | 0.00 | 0.00 | 69 | 1020.2 |
| 20260905071555 | 82 | 180 | 3.5 | 5.2 | 0.00 | 0.00 | 0.00 | 70 | 1019.4 |
| 20260905064604 | 82 | 185 | 3.5 | 7.8 | 0.00 | 0.00 | 0.00 | 70 | 1018.0 |
| 20260905063056 | 80 | 188 | 4.3 | 7.0 | 0.00 | 0.00 | 0.00 | 69 | 1018.3 |
| 20260905061558 | 79 | 188 | 1.7 | 3.5 | 0.00 | 0.00 | 0.00 | 69 | 1018.4 |
| 20260905060048 | 80 | 188 | 0.0 | 0.9 | 0.00 | 0.00 | 0.00 | 69 | 1018.6 |
| 20260905054559 | 79 | 188 | 1.7 | 3.5 | 0.00 | 0.00 | 0.00 | 69 | 1018.3 |
| 20260905053108 | 79 | 0 | 0.0 | 5.2 | 0.00 | 0.00 | 0.00 | 69 | 1018.7 |
| 20260905051556 | 78 | 188 | 0.0 | 2.6 | 0.00 | 0.00 | 0.00 | 69 | 1018.4 |
| 20260905050108 | 78 | 188 | 0.9 | 1.7 | 0.00 | 0.00 | 0.00 | 69 | 1018.7 |
| 20260905044558 | 78 | 0 | 0.0 | 0.9 | 0.00 | 0.00 | 0.00 | 69 | 1018.8 |
| 20260905043102 | 79 | 188 | 0.0 | 1.7 | 0.00 | 0.00 | 0.00 | 69 | 1019.3 |
| 20260905041559 | 79 | 0 | 0.0 | 1.7 | 0.00 | 0.00 | 0.00 | 69 | 1019.2 |
| 20260905040107 | 80 | 188 | 0.9 | 3.5 | 0.00 | 0.00 | 0.00 | 70 | 1019.2 |
| 20260905034611 | 79 | 188 | 0.9 | 2.6 | 0.00 | 0.00 | 0.00 | 69 | 1018.8 |
| 20260905033115 | 80 | 0 | 0.9 | 0.9 | 0.00 | 0.00 | 0.00 | 70 | 1018.4 |
| 20260905031602 | 80 | 188 | 0.0 | 1.7 | 0.00 | 0.00 | 0.00 | 70 | 1018.2 |
| 20260905030104 | 80 | 188 | 0.9 | 1.7 | 0.00 | 0.00 | 0.00 | 70 | 1018.0 |
| 20260905024557 | 80 | 188 | 1.7 | 1.7 | 0.00 | 0.00 | 0.00 | 70 | 1017.8 |
| 20260905023111 | 79 | 0 | 0.0 | 0.9 | 0.00 | 0.00 | 0.00 | 70 | 1017.8 |
| 20260905021556 | 80 | 188 | 0.0 | 0.9 | 0.00 | 0.00 | 0.00 | 70 | 1017.8 |
| 20260905020055 | 80 | 188 | 0.0 | 0.9 | 0.00 | 0.00 | 0.00 | 70 | 1018.0 |
| 20260905014559 | 81 | 0 | 0.0 | 0.9 | 0.00 | 0.00 | 0.00 | 70 | 1018.1 |
| 20260905013056 | 81 | 0 | 0.0 | 0.0 | 0.00 | 0.00 | 0.00 | 70 | 1017.9 |
| 20260905011600 | 83 | 0 | 0.0 | 0.9 | 0.00 | 0.00 | 0.00 | 70 | 1018.2 |
| 20260905010107 | 85 | 188 | 0.0 | 3.5 | 0.00 | 0.00 | 0.00 | 71 | 1018.2 |
| 20260905004625 | 85 | 188 | 1.7 | 3.5 | 0.00 | 0.00 | 0.00 | 71 | 1018.1 |
| 20260905003104 | 84 | 188 | 1.7 | 3.5 | 0.00 | 0.00 | 0.00 | 71 | 1018.1 |
| 20260905001558 | 81 | 188 | 0.9 | 1.7 | 0.00 | 0.00 | 0.00 | 70 | 1018.4 |
| 20260905000135 | 80 | 188 | 0.9 | 0.9 | 0.00 | 0.00 | 0.00 | 70 | 1018.5 |
| 20260904234600 | 80 | 0 | 0.0 | 0.9 | 0.00 | 0.00 | 0.00 | 70 | 1018.5 |
| 20260904233058 | 80 | 188 | 0.0 | 2.6 | 0.00 | 0.00 | 0.00 | 70 | 1018.8 |
| 20260904231557 | 80 | 0 | 0.0 | 0.0 | 0.00 | 0.00 | 0.00 | 70 | 1018.9 |
| 20260904230114 | 81 | 0 | 0.0 | 0.9 | 0.00 | 0.00 | 0.00 | 71 | 1018.8 |
| 20260904224559 | 81 | 188 | 0.9 | 1.7 | 0.00 | 0.00 | 0.00 | 71 | 1019.0 |
| 20260904223100 | 81 | 0 | 0.0 | 2.6 | 0.00 | 0.00 | 0.00 | 71 | 1018.9 |
| 20260904221557 | 82 | 188 | 0.9 | 1.7 | 0.00 | 0.00 | 0.00 | 71 | 1019.2 |
| 20260904220100 | 83 | 188 | 1.7 | 2.6 | 0.00 | 0.00 | 0.00 | 71 | 1019.3 |
| 20260904214607 | 84 | 188 | 1.7 | 9.6 | 0.00 | 0.00 | 0.00 | 71 | 1019.4 |
| 20260904213059 | 86 | 191 | 3.5 | 5.2 | 0.00 | 0.00 | 0.00 | 72 | 1018.9 |
| 20260904211603 | 85 | 191 | 3.5 | 4.3 | 0.00 | 0.00 | 0.00 | 71 | 1018.9 |
| 20260904210055 | 85 | 191 | 1.7 | 7.0 | 0.00 | 0.00 | 0.00 | 72 | 1018.9 |
| 20260904204602 | 84 | 191 | 0.9 | 3.5 | 0.00 | 0.00 | 0.00 | 72 | 1019.3 |
| 20260904203100 | 85 | 0 | 0.0 | 3.5 | 0.00 | 0.00 | 0.00 | 72 | 1019.9 |
| 20260904201621 | 85 | 191 | 1.7 | 3.5 | 0.00 | 0.00 | 0.00 | 72 | 1019.9 |
| 20260904200100 | 85 | 0 | 0.0 | 1.7 | 0.00 | 0.00 | 0.00 | 72 | 1019.4 |
| 20260904194555 | 86 | 0 | 0.0 | 3.5 | 0.00 | 0.00 | 0.00 | 72 | 1019.3 |
| 20260904193100 | 85 | 191 | 0.9 | 1.7 | 0.00 | 0.00 | 0.00 | 72 | 1019.1 |
| 20260904191555 | 85 | 191 | 0.9 | 0.9 | 0.00 | 0.00 | 0.00 | 72 | 1019.1 |
| 20260904190056 | 84 | 191 | 0.0 | 1.7 | 0.00 | 0.00 | 0.00 | 72 | 1018.9 |
| 20260904184556 | 84 | 191 | 0.9 | 1.7 | 0.00 | 0.00 | 0.00 | 72 | 1018.8 |
| 20260904183113 | 85 | 0 | 0.0 | 1.7 | 0.00 | 0.00 | 0.00 | 72 | 1018.6 |
| 20260904181554 | 88 | 0 | 0.0 | 0.9 | 0.00 | 0.00 | 0.00 | 72 | 1018.9 |
| 20260904174557 | 89 | 191 | 1.7 | 6.1 | 0.00 | 0.00 | 0.00 | 73 | 1018.5 |
| 20260904173056 | 88 | 192 | 3.5 | 6.1 | 0.00 | 0.00 | 0.00 | 73 | 1018.0 |
| 20260904171611 | 89 | 192 | 1.7 | 3.5 | 0.00 | 0.00 | 0.00 | 73 | 1019.4 |
| 20260904170100 | 89 | 192 | 2.6 | 3.5 | 0.00 | 0.00 | 0.00 | 73 | 1019.7 |
| 20260904164610 | 89 | 192 | 0.9 | 1.7 | 0.00 | 0.00 | 0.00 | 73 | 1019.8 |
| 20260904163053 | 88 | 192 | 2.6 | 7.0 | 0.00 | 0.00 | 0.00 | 72 | 1019.7 |
| 20260904161552 | 86 | 192 | 1.7 | 2.6 | 0.00 | 0.00 | 0.00 | 72 | 1019.8 |
| 20260904154558 | 83 | 192 | 2.6 | 5.2 | 0.00 | 0.00 | 0.00 | 72 | 1020.7 |
| 20260904153109 | 82 | 192 | 3.5 | 11.3 | 0.00 | 0.00 | 0.00 | 71 | 1020.8 |
| 20260904151553 | 83 | 192 | 5.2 | 8.7 | 0.00 | 0.00 | 0.00 | 71 | 1021.0 |
| 20260904150100 | 84 | 193 | 3.5 | 7.0 | 0.00 | 0.00 | 0.00 | 72 | 1021.1 |
| 20260904144559 | 82 | 193 | 0.0 | 13.0 | 0.00 | 0.00 | 0.00 | 71 | 1020.9 |
| 20260904143055 | 86 | 158 | 7.0 | 12.2 | 0.00 | 0.00 | 0.00 | 72 | 1021.0 |
| 20260904141555 | 85 | 118 | 4.3 | 7.8 | 0.00 | 0.00 | 0.00 | 71 | 1019.7 |
| 20260904140104 | 84 | 118 | 4.3 | 9.6 | 0.00 | 0.00 | 0.00 | 71 | 1020.3 |
| 20260904134601 | 83 | 122 | 7.8 | 10.4 | 0.00 | 0.00 | 0.00 | 71 | 1020.4 |
| 20260904133059 | 83 | 122 | 0.0 | 3.5 | 0.00 | 0.00 | 0.00 | 71 | 1021.8 |
| 20260904131607 | 83 | 122 | 0.9 | 2.6 | 0.00 | 0.00 | 0.00 | 71 | 1022.2 |
| 20260904130050 | 82 | 122 | 0.0 | 3.5 | 0.00 | 0.00 | 0.00 | 71 | 1022.4 |
| 20260904124557 | 82 | 122 | 1.7 | 5.2 | 0.00 | 0.00 | 0.00 | 70 | 1022.8 |
| 20260904123058 | 82 | 122 | 0.0 | 2.6 | 0.00 | 0.00 | 0.00 | 70 | 1022.8 |
| 20260904121556 | 81 | 0 | 0.0 | 3.5 | 0.00 | 0.00 | 0.00 | 70 | 1022.6 |
| 20260904114605 | 79 | 128 | 0.9 | 4.3 | 0.00 | 0.00 | 0.00 | 70 | 1023.2 |